User: anonymous   Login
Location: Newark
(28.4500°N, 16.2500°W)
Time: 06:36:52
(UTC+00:00)
Language:

JUGNU - Orbit

View from above orbital plane
View from above orbital plane
View from above satellite
View from above satellite

Ground track
Ground track

The orbit data is extracted from the following two-line orbital elements,

1 37839U 11058B   19258.11680575 +.00000309 +00000-0 +22467-4 0  9990
2 37839 019.9604 158.5532 0018945 221.4669 284.6732 14.12658347409665
Epoch (UTC): 15 September 2019 02:48:12
Eccentricity: 0.0018945
inclination: 19.9604°
perigee height: 836 km
apogee height: 864 km
right ascension of ascending node: 158.5532°
argument of perigee: 221.4669°
revolutions per day: 14.12658347
mean anomaly at epoch: 284.6732°
orbit number at epoch: 40966

The dashed part of the orbit path shows where the satellite is in the earth's shadow,  

DLR